EHI
0 0 0 0 0 0 0 0 0 0 0 0 0 0 0 0 0 0 0 0 0 0 0 0 0 0 0 0 0 0 0 0 0 0 0 0 0 0
0 0 0 0 0 0 0 0 0 0 0 0 0 0 0 0 0 0 0 0 0 0 0 0 0 0 0 0 0 0 0 0 0 0 0 0 0 0
0 0 0 0 0 0 0 0 0 0 0 0 0 0 0 0 0 0 0 0 0 0 0 0 0 0 0 0 0 0 0 0 0 0 0 0 0 0
0 0 0 0 0 0 0 0 0 0 0 0 0 0 0 0 0 0 0 0 0 0 0 0 0 0 0 0 0 0 0 0 0 0 0 0 0 0
0 0 0 0 0 0 0 0 0 0 0 0 0 0 0 0 0 0 0 0 0 0 0 0 0 0 0 0 0 0 0 0 0 0 0 0 0 0
0 0 0 0 0 0 0 0 0 0 0 0 0 0 0 0 0 0 0 0 0 0 0 0 0 0 0 0 0 0 0 0 0 0 0 0 0 0
0 0 0 0 0 0 0 0 0 0 0 0 0 0 0 0 0 0 0 0 0 0 0 0 0 0 0 0 0 0 0 0 0 0 0 0 0 0
0 0 0 0 0 0 0 0 0 0 0 0 0 0 0 0 0 0 0 0 0 0 0 0 0 0 0 0 0 0 0 0 0 0 0 0 0 0
0 0 0 0 0 0 0 0 0 0 0 0 0 0 0 0 0 0 0 0 0 0 0 0 0 0 0 0 0 0 0 0 0 0 0 0 0 0
0 0 0 0 0 0 0 0 0 0 0 0 0 0 0 0 0 0 0 0 0 0 0 0 0 0 0 0 0 0 0 0 0 0 0 0 0 0
0 0 0 0 0 0 0 0 0 0 0 0 0 0 0 0 0 0 0 0 0 0 0 0 0 0 0 0 0 0 0 0 0 0 0 0 0 0
0 0 0 0 0 0 0 0 0 0 0 0 0 0 0 0 0 0 0 0 0 0 0 0 0 0 0 0 0 0 0 0 0 0 0 0 0 0
0 0 0 0 0 0 0 0 0 0 0 0 0 0 0 0 0 0 0 0 0 0 0 0 0 0 0 0 0 0 0 0 0 0 0 0 0 0
0 0 0 0 0 0 0 0 0 0 0 0 0 0 0 0 0 0 0 0 0 0 0 0 0 0 0 0 0 0 0 0 0 0 0 0 0 0
0 0 0 0 0 0 0 0 0 0 0 0 0 0 0 0 0 0 0 0 0 0 0 0 0 0 0 0 0 0 0 0 0 0 0 0 0 0
0 0 0 0 0 0 0 0 0 0 0 0 0 0 0 0 0 0 0 0 0 0 0 0 0 0 0 0 0 0 0 0 0 0 0 0 0 0
0 0 0 0 0 0 0 0 0 0 0 0 0 0 0 0 0 0 0 0 0 0 0 0 0 0 0 0 0 0 0 0 0 0 0 0 0 0
0 0 0 0 0 0 0 0 0 0 0 0 0 0 0 0 0 0 0 0 0 0 0 0 0 0 0 0 0 0 0 0 0 0 0 0 0 0
0 0 0 0 0 0 0 0 0 0 0 0 0 0 0 0 0 0 0 0 0 0 0 0 0 0 0 0 0 0 0 0 0 0 0 0 0 0
0 0 0 0 0 0 0 0 0 0 0 0 0 0 0 0 0 0 0 0 0 0 0 0 0 0 0 0 0 0 0 0 0 0 0 0 0 0
0 0 0 0 0 0 0 0 0 0 0 0 0 0 0 0 0 0 0 0 0 0 0 0 0 0 0 0 0 0 0 0 0 0 0 0 0 0
0 0 0 0 0 0 0 0 0 0 0 0 0 0 0 0 0 0 0 0 0 0 0 0 0 0 0 0 0 0 0 0 0 0 0 0 0 0
0 0 0 0 0 0 0 0 0 0 0 0 0 0 0 0 0 0 0 0 0 0 0 0 0 0 0 0 0 0 0 0 0 0 0 0 0 0
Wind_Speed
2 2 2 2 2 2 2 2 2 4 4 3 1 1 1 1 3 3 3 7 9 9 9 9 9 9 10 10 10 9 9 9 9 9 9 9 9 10
2 2 2 2 2 2 2 2 2 3 5 3 2 2 2 3 4 3 4 9 9 9 9 9 9 9 9 9 9 9 9 9 9 9 9 9 10 10
3 3 3 3 2 2 2 2 2 2 5 5 3 3 3 3 4 3 4 4 4 8 9 9 9 10 10 9 9 9 9 9 9 9 10 10 10 10
4 3 4 3 3 3 2 3 3 3 4 6 5 4 4 4 4 4 4 4 4 8 10 10 10 10 10 9 9 8 8 8 9 9 10 10 10 11
4 4 4 4 4 3 3 3 3 4 3 4 5 4 3 3 3 4 5 4 5 6 8 9 10 10 10 9 9 8 8 8 9 9 10 10 11 11
4 5 5 5 5 4 4 4 4 4 4 4 5 4 4 3 3 3 5 4 4 4 6 7 9 10 9 9 9 9 8 9 9 9 10 10 10 11
5 5 5 6 7 6 5 4 4 4 4 4 5 4 4 3 3 3 4 4 4 3 3 4 4 4 5 7 8 8 9 9 10 10 10 10 10 11
5 5 6 6 8 10 11 9 7 6 5 5 5 5 6 5 4 3 3 4 5 2 3 5 4 4 4 3 7 9 9 9 10 10 11 11 11 11
6 5 5 6 7 6 8 10 10 12 11 7 7 7 6 5 4 4 4 5 6 4 3 6 4 4 4 5 8 8 8 9 10 10 10 11 11 11
6 6 7 6 6 6 5 6 7 7 9 8 7 7 6 5 4 4 5 5 5 4 3 5 3 4 4 4 8 9 9 9 10 10 10 11 11 11
7 6 7 7 9 9 6 6 7 7 8 10 10 10 10 9 5 2 3 3 5 4 2 3 3 4 4 4 5 8 9 10 10 10 11 11 11 11
5 6 9 10 10 10 6 6 8 7 5 5 6 6 6 6 7 5 4 4 4 4 2 2 2 2 4 3 3 3 4 8 10 11 11 11 11 5
5 5 5 10 12 12 10 7 10 8 5 5 4 4 3 3 3 4 4 4 5 5 2 1 2 2 3 4 3 3 3 3 4 6 8 10 10 6
6 5 5 10 12 12 10 11 12 9 4 4 4 4 4 4 3 3 4 4 5 6 4 3 3 3 3 4 5 3 3 3 3 3 3 7 8 9
6 9 10 11 11 9 11 12 9 5 4 4 5 5 4 4 3 2 3 3 3 4 4 4 4 3 4 5 5 4 4 3 3 2 2 3 3 3
6 8 11 12 9 9 8 7 5 5 5 5 5 4 3 3 3 3 3 2 3 4 4 4 5 5 5 5 5 6 4 4 3 3 3 3 3 3
5 4 4 4 4 4 4 4 4 4 5 4 4 4 3 3 3 2 2 3 4 4 3 2 3 4 5 5 5 6 5 5 4 3 3 4 4 3
8 5 6 6 6 6 5 5 4 5 5 4 4 4 4 4 3 3 3 4 4 4 4 3 2 2 2 4 7 6 5 5 4 3 3 4 5 4
7 6 6 6 6 5 5 5 5 5 4 4 4 4 4 4 3 3 3 4 4 4 3 3 2 2 4 5 4 6 4 3 3 3 3 4 5 5
6 6 7 6 6 6 5 5 5 4 4 4 4 4 4 4 4 4 4 4 4 3 3 3 3 3 4 4 3 3 5 4 3 4 4 4 5 7
6 6 6 6 6 5 5 5 5 5 5 4 4 4 4 4 4 4 4 5 4 4 4 4 4 4 2 1 3 4 3 5 5 4 3 4 4 4
6 6 6 5 5 5 5 4 4 5 5 5 4 4 4 4 4 4 4 4 4 4 4 3 2 1 2 3 4 4 4 4 4 7 7 6 3 3
6 6 5 5 5 4 4 5 6 5 5 5 4 4 4 3 3 3 4 4 3 3 3 2 1 1 2 3 3 4 4 4 3 3 3 5 8 10
Wind_Direction
251 257 257 260 257 259 258 248 254 284 286 273 281 288 295 285 306 299 294 301 306 306 307 309 311 313 314 317 317 316 317 317 315 313 316 318 312 311
239 246 257 262 265 256 249 254 243 249 273 282 282 285 295 306 302 293 286 298 296 299 301 303 305 306 306 308 310 310 312 313 313 313 314 317 318 315
248 237 246 250 256 259 251 249 252 248 267 285 288 292 292 289 295 286 284 282 285 293 295 297 300 302 302 304 304 304 307 308 308 309 311 313 313 312
250 245 247 248 250 251 248 248 250 248 254 277 288 289 279 274 281 289 293 291 282 290 293 293 293 295 294 296 297 297 299 301 302 305 306 307 307 306
244 244 246 243 249 246 245 246 249 256 248 264 279 286 285 288 293 295 292 287 285 287 292 292 293 293 290 289 291 292 293 294 296 297 299 300 301 301
243 243 244 239 243 243 246 245 248 254 256 260 270 280 283 288 287 290 298 293 290 292 289 289 288 289 285 284 286 287 285 289 290 291 293 295 296 296
251 247 245 242 243 245 249 244 244 250 255 258 267 277 276 284 279 277 285 297 290 280 291 289 286 279 274 277 282 281 280 284 287 290 291 292 293 292
256 257 254 248 250 254 256 255 246 246 249 251 260 262 267 266 270 273 284 299 293 291 298 288 279 273 266 258 273 280 284 284 284 287 289 289 291 292
251 255 260 255 254 251 258 261 259 257 252 248 254 257 263 260 263 269 265 265 268 279 296 283 275 272 270 271 276 278 283 290 289 288 289 290 290 290
248 247 251 256 249 246 251 257 257 256 254 250 247 253 257 255 245 252 258 272 275 269 249 270 281 278 284 275 271 271 281 291 295 295 294 292 291 291
253 250 250 255 255 253 252 256 264 265 263 255 253 259 262 263 262 261 261 272 279 273 240 250 281 294 290 279 273 277 285 292 295 296 293 293 293 292
257 253 250 251 257 257 251 250 260 264 264 270 265 266 265 263 263 245 233 248 266 272 241 239 274 306 301 289 287 289 287 288 291 296 298 294 295 292
260 259 255 257 259 261 259 251 257 266 258 254 258 259 257 251 249 242 232 233 245 256 250 233 260 260 261 291 293 274 270 282 292 295 299 299 297 294
259 260 259 262 262 264 263 260 264 268 257 252 252 253 249 247 244 239 238 238 238 247 249 231 241 248 264 280 286 291 286 278 279 286 291 302 300 297
259 261 266 269 268 263 259 261 260 252 243 245 248 249 243 235 232 239 245 244 253 256 252 238 236 244 246 260 275 283 295 288 273 276 287 292 290 292
264 265 269 270 263 257 260 256 242 235 240 245 250 250 242 232 232 233 247 251 262 266 250 237 233 235 251 257 263 274 270 274 288 285 288 285 280 269
272 270 265 265 258 252 249 247 240 238 244 243 244 248 243 240 239 226 234 241 251 262 269 251 241 243 245 252 261 264 267 267 270 281 290 292 283 269
272 261 257 253 252 250 248 248 241 238 237 235 236 238 239 239 241 231 231 243 253 259 260 257 258 280 278 260 236 257 264 264 270 271 272 281 287 284
261 252 252 251 251 248 245 243 245 240 232 228 232 233 232 232 235 236 235 245 254 257 255 245 242 248 272 283 269 223 241 265 274 273 263 260 275 283
245 249 251 249 248 246 243 243 245 241 233 230 230 227 223 227 233 236 235 242 251 257 257 243 234 234 242 258 275 275 247 248 257 269 277 277 275 281
252 251 250 248 248 244 242 240 238 238 234 228 228 226 223 224 233 235 236 241 248 252 252 252 246 249 246 250 274 278 273 253 249 255 269 284 291 296
258 257 255 250 246 243 240 238 240 239 233 229 227 225 221 223 232 234 233 239 243 245 252 259 248 237 220 238 264 281 293 299 283 276 266 249 255 270
259 259 257 252 247 243 238 236 238 240 232 226 222 221 217 222 228 229 232 237 240 240 244 256 252 235 242 247 265 282 290 298 303 304 289 274 267 270